This demonstration page uses our WeatherBlox Daily Observations layout. Learn more.

Left ArrowRight Arrow

Hourly Observations for August 23, 2018

Temp ( °F °C ) Dew Point ( °F °C ) Humidity (%) Winds ( mph kmh ) Pressure ( in mb ) Visibility ( mi km ) Precip ( " mm )
12:52 am 00:52 Clear 63 17.2 56 13.3 78 78 ESE 3 6 30.14 1021 10 16 0.00 0.00
1:52 am 01:52 Clear 62 16.7 57 13.9 84 84 Calm 30.14 1021 10 16 0.00 0.00
2:52 am 02:52 Clear 63 17.2 56 13.3 78 78 SE 5 7 30.13 1020 10 16 0.00 0.00
3:52 am 03:52 Clear 63 17.2 56 13.3 78 78 SE 6 9 30.13 1020 10 16 0.00 0.00
4:52 am 04:52 Clear 64 17.8 56 13.3 75 75 SSE 8 13 30.12 1020 10 16 0.00 0.00
5:52 am 05:52 Clear 63 17.2 56 13.3 78 78 SSE 8 13 30.12 1020 10 16 0.00 0.00
6:52 am 06:52 Partly Cloudy 64 17.8 56 13.3 75 75 SE 13 20 30.11 1020 10 16 0.00 0.00
7:52 am 07:52 Sunny 65 18.3 57 13.9 76 76 SSE 12 19 30.13 1020 10 16 0.00 0.00
8:52 am 08:52 Mostly Sunny 68 20 56 13.3 65 65 SSE 13 20 30.15 1021 10 16 0.00 0.00
9:52 am 09:52 Mostly Cloudy 70 21.1 55 12.8 59 59 SSE 16 26 30.15 1021 10 16 0.00 0.00
10:52 am 10:52 Cloudy with Light Rain 67 19.4 58 14.4 73 73 S 12 19 30.16 1021 6 10 0.00 0.03
11:52 am 11:52 Cloudy with Light Rain 65 18.3 60 15.6 84 84 S 10 17 30.16 1021 5 8 0.03 0.76
12:52 pm 12:52 Cloudy with Light Rain 65 18.3 61 16.1 87 87 S 10 17 30.15 1021 6 10 0.04 1.02
1:01 pm 13:01 Cloudy with Light Rain 65 18.3 61 16.1 87 87 S 12 19 30.15 1021 6 10 0.00 0.03
1:19 pm 13:19 Cloudy with Light Rain 64 17.8 61 16.1 90 90 SSE 10 17 30.12 1020 7 11 0.02 0.51
1:52 pm 13:52 Cloudy with Light Rain 65 18.3 62 16.7 90 90 SSE 8 13 30.14 1021 7 11 0.03 0.76
2:52 pm 14:52 Cloudy with Light Rain 65 18.3 62 16.7 90 90 SSE 12 19 30.11 1020 6 10 0.02 0.51
3:52 pm 15:52 Cloudy with Rain 65 18.3 62 16.7 90 90 SSE 13 20 30.06 1018 2 3 0.11 2.79
3:59 pm 15:59 Mostly Cloudy with Light Rain 65 18.3 62 16.7 90 90 SSE 12 19 30.06 1018 6 10 0.01 0.25
4:52 pm 16:52 Cloudy with Light Rain 65 18.3 62 16.7 90 90 SSE 16 26 30.01 1016 7 11 0.02 0.51
5:52 pm 17:52 Mostly Cloudy 66 18.9 63 17.2 90 90 SE 15 24 29.98 1015 9 14 0.00 0.03
6:20 pm 18:20 Mostly Cloudy 67 19.4 63 17.2 87 87 SE 13 20 29.97 1015 9 14 0.00 0.00
6:52 pm 18:52 Mostly Cloudy 67 19.4 64 17.8 91 91 SSE 13 20 29.97 1015 9 14 0.00 0.00
7:26 pm 19:26 Partly Cloudy 67 19.4 64 17.8 91 91 SSE 15 24 29.97 1015 9 14 0.00 0.00
7:52 pm 19:52 Partly Cloudy 67 19.4 63 17.2 87 87 SSE 15 24 29.96 1015 9 14 0.00 0.00
8:05 pm 20:05 Mostly Cloudy 67 19.4 63 17.2 87 87 SSE 13 20 29.94 1014 9 14 0.00 0.00
8:17 pm 20:17 Partly Cloudy 67 19.4 63 17.2 87 87 SSE 12 19 29.94 1014 10 16 0.00 0.00
8:27 pm 20:27 Mostly Cloudy 67 19.4 64 17.8 91 91 SSE 15 24 29.97 1015 10 16 0.00 0.00
8:52 pm 20:52 Mostly Cloudy 67 19.4 63 17.2 87 87 SSE 15 24 29.96 1014 10 16 0.00 0.00
9:00 pm 21:00 Mostly Clear 67 19.4 63 17.2 87 87 S 15 24 29.94 1014 9 14 0.00 0.00
9:52 pm 21:52 Mostly Clear 67 19.4 63 17.2 87 87 SSE 17 28 29.95 1014 9 14 0.00 0.00
10:52 pm 22:52 Clear 67 19.4 64 17.8 91 91 SSE 15 24 29.95 1014 9 14 0.00 0.00
11:32 pm 23:32 Mostly Clear 67 19.4 64 17.8 91 91 SSE 15 24 29.94 1014 9 14 0.00 0.00
11:52 pm 23:52 Partly Cloudy 67 19.4 64 17.8 91 91 SSE 15 24 29.94 1014 9 14 0.00 0.00

Powered by AerisWeather